DELTA 1 DEB, 7039

Orbit data source: Space-Track

DELTA 1 DEB, 7039 is space debris in SSO originally from a launch on Tue, 06 Nov 1973 UTC launched from the Air Force Western Test Range (AFWTR). Debris objects in space refer to the collection of defunct objects orbiting the Earth. Examples of debris include non-operational satellites, rocket bodies, and fragments generated from explosions, collisions, or faulty payload assembly.

Loading next visibility...
DELTA 1 DEB details
Identifier
7039, 1973-086AF
Orbit
SSO
Last TLE update1 day ago
Origin
Flag of USGSFC (US)
ManufacturerUnknown
MissionSpacecraft
Bus & MotorUnknown
MassUnknown
Launch date (UTC)
1973-11-06 (51 years ago)
Launch vehicleUnknown
Launch site
Air Force Western Test Range (AFWTR)
Object type
Payload
Rocket body
Debris
Shape & HBRUnknown
Radar Cross SectionMedium (>0.1 m² and <1 m²)

Expand to show TLE details & history

TLE from 1 day ago
0 DELTA 1 DEB
1 07039U 73086AF  24360.47153793  .00000100  00000-0  95793-3 0  9994
2 07039 102.4958 326.0539 0129035 211.4112 271.9198 12.49502729329822
Epoch: 2024-12-25T11:19Z
Definitive object data (Epoch: 2024-12-25T11:19:00.877Z)
Latitude56.12025°
Longitude-98.99077°
Altitude1,473.613 km
Speed7.132 km/s
True Right ascension11h 00m 54s
True Declination55° 58' 32"
Sunlit
Object was in daylight at TLE epoch
Visualization TLE readout
Latitude-59.92432°
Longitude85.26247°
Altitude1,485.024 km
Speed7.123 km/s
Apparent Right ascension22h 56m 30s
Apparent Declination-50° 54' 36"
Sunlit
Object is in daylight
Visualization observer readout
Local Sidereal Time10:39:15
Azimuth193.884° SSW
Elevation-78.602°
Doppler factor1
Orbital elements
Apogee altitude1,565.361 km
Perigee altitude1,362.974 km
Semi-major axis7,842.304 km
Eccentricity0.0129035
Inclination102.4958°
RAAN326.0539°
Arg. of periapsis211.4112°
True anomaly270.44136°
Mean anomaly271.9198°
Eccentric anomaly271.18064°
Mean motion3.1252 °/min
BSTAR0.00095793
Orbital period115.19 mins
Loading maneuver chart data...
Loading historical data...
Loading historical data...
Loading historical data...
Loading historical data...
Loading historical data...
Loading historical data...
Loading historical data...

DELTA 1 DEB Visibility forecast

Observer location: undefined°, undefined

Span
Click to sort rows by Start time (UTC) header in descending order
Start Az.
Max El. time (UTC)
Max El. Az.
Max El.
End time (UTC)
End Az.
13 mins2024-12-26 12:14:55.796Z0.236° NNE2024-12-26 12:20:55.796Z308.057° NW30.348°2024-12-26 12:27:55.796Z242.032° WSW
9 mins2024-12-26 19:32:55.796Z78.185° E2024-12-26 19:36:55.796Z47.392° ENE17.94°2024-12-26 19:41:55.796Z10.787° NNE
16 mins2024-12-26 21:20:55.796Z149.834° SSE2024-12-26 21:27:55.796Z94.976° ESE43.797°2024-12-26 21:36:55.796Z345.176° N
11 mins2024-12-26 23:16:55.796Z223.075° SW2024-12-26 23:21:55.796Z264.264° W22.685°2024-12-26 23:27:55.796Z311.975° NW
10 mins2024-12-27 09:27:55.796Z53.218° ENE2024-12-27 09:32:55.796Z96.586° ESE20.981°2024-12-27 09:37:55.796Z138.648° SSE
|